This demonstration page uses our WeatherBlox Daily Observations layout. Learn more.

Left ArrowRight Arrow

40.92945, -100.16068

Hourly Observations for February 9, 2018

Temp ( °F °C ) Dew Point ( °F °C ) Humidity (%) Winds ( mph kmh ) Pressure ( in mb ) Visibility ( mi km ) Precip ( " mm )
12:15 am 00:15 Cloudy 19 -7 16 -8.7 88 88 NNE 15 24 30.21 1023 7 11.26538 0 0
12:35 am 00:35 Cloudy 20 -6.5 17 -8.3 87 87 NNE 13 20 30.21 1023 7 11.26538 0 0
12:55 am 00:55 Cloudy 20 -6.4 17 -8.2 87 87 NNE 14 22 30.21 1023 7 11.26538 0 0
1:15 am 01:15 Cloudy 20 -6.6 17 -8.5 87 87 NNE 13 20 30.21 1023 7 11.26538 0 0
1:35 am 01:35 Cloudy 20 -6.7 17 -8.6 87 87 NNE 13 20 30.24 1024 7 11.26538 0 0
1:55 am 01:55 Cloudy 21 -6.2 17 -8.1 87 87 NNE 16 26 30.24 1024 7 11.26538 0 0
2:15 am 02:15 Cloudy 22 -5.8 18 -7.7 87 87 N 23 37 30.24 1024 7 11.26538 0 0
2:35 am 02:35 Cloudy with Mist and Fog 19 -7.5 15 -9.7 84 84 NNE 25 41 30.3 1026 2.5 4.02335 0 0
2:55 am 02:55 Cloudy 18 -8 13 -10.5 82 82 NNE 20 31 30.3 1026 7 11.26538 0 0
3:15 am 03:15 Cloudy 17 -8.1 13 -10.7 82 82 NNE 18 30 30.3 1026 7 11.26538 0 0
3:35 am 03:35 Cloudy 17 -8.5 12 -11.1 82 82 NNE 16 26 30.33 1027 7 11.26538 0 0
3:55 am 03:55 Cloudy 17 -8.6 12 -11.2 82 82 N 17 28 30.33 1027 7 11.26538 0 0
4:15 am 04:15 Cloudy 16 -8.8 11 -11.6 80 80 NNE 18 30 30.33 1027 10 16.0934 0 0
4:35 am 04:35 Cloudy with Light Snow 15 -9.2 10 -12.1 80 80 N 18 30 30.36 1028 7 11.26538 0 0
4:55 am 04:55 Cloudy with Light Snow 15 -9.3 10 -12.2 80 80 NNE 13 20 30.36 1028 7 11.26538 0 0
5:15 am 05:15 Cloudy with Light Snow 15 -9.6 10 -12.4 80 80 NNE 14 22 30.39 1029 5 8.0467 0 0
5:35 am 05:35 Cloudy with Light Snow 14 -10 9 -13 79 79 N 14 22 30.42 1030 10 16.0934 0 0
5:55 am 05:55 Cloudy 14 -10.2 8 -13.2 79 79 N 17 28 30.42 1030 10 16.0934 0 0
6:15 am 06:15 Cloudy 14 -10.1 8 -13.1 79 79 NNE 15 24 30.45 1031 10 16.0934 0 0
6:35 am 06:35 Cloudy 14 -10.1 8 -13.1 79 79 NNE 13 20 30.45 1031 10 16.0934 0 0
6:55 am 06:55 Cloudy 14 -10.2 8 -13.2 79 79 NNE 13 20 30.45 1031 10 16.0934 0 0
7:15 am 07:15 Cloudy 14 -10.2 9 -13 80 80 NNE 12 19 30.45 1031 10 16.0934 0 0
7:35 am 07:35 Cloudy 13 -10.3 8 -13.4 78 78 NNE 14 22 30.45 1031 10 16.0934 0 0
7:55 am 07:55 Cloudy 13 -10.5 8 -13.5 79 79 NNE 13 20 30.45 1031 10 16.0934 0 0
8:15 am 08:15 Cloudy 13 -10.6 7 -13.7 78 78 NNE 14 22 30.45 1031 10 16.0934 0 0
8:35 am 08:35 Cloudy 13 -10.5 7 -13.7 78 78 NNE 13 20 30.45 1031 10 16.0934 0 0
8:55 am 08:55 Cloudy 14 -10.2 8 -13.5 77 77 NNE 14 22 30.48 1032 10 16.0934 0 0
9:15 am 09:15 Cloudy 14 -10.1 8 -13.6 76 76 NNE 16 26 30.48 1032 10 16.0934 0 0
9:35 am 09:35 Cloudy 14 -10.2 8 -13.6 76 76 N 14 22 30.48 1032 10 16.0934 0 0
9:55 am 09:55 Cloudy 13 -10.4 7 -13.9 76 76 NNE 13 20 30.48 1032 10 16.0934 0 0
10:15 am 10:15 Cloudy with Light Snow 13 -10.4 7 -13.9 76 76 N 14 22 30.48 1032 10 16.0934 0 0
10:35 am 10:35 Cloudy with Light Snow 14 -10.1 7 -13.8 75 75 N 14 22 30.48 1032 10 16.0934 0 0
10:55 am 10:55 Cloudy 13 -10.5 7 -14 76 76 N 14 22 30.5 1033 10 16.0934 0 0
11:15 am 11:15 Cloudy 13 -10.5 6 -14.2 75 75 NNE 13 20 30.48 1032 10 16.0934 0 0
11:35 am 11:35 Cloudy 14 -10.1 8 -13.6 76 76 N 13 20 30.48 1032 10 16.0934 0 0
11:55 am 11:55 Cloudy 14 -10 7 -13.9 73 73 NNE 15 24 30.45 1031 10 16.0934 0 0
12:15 pm 12:15 Cloudy 14 -9.9 7 -13.7 74 74 N 10 17 30.45 1031 10 16.0934 0 0
12:35 pm 12:35 Cloudy 14 -9.8 7 -13.7 73 73 NNE 13 20 30.45 1031 10 16.0934 0 0
12:55 pm 12:55 Cloudy 15 -9.7 8 -13.5 74 74 N 13 20 30.42 1030 10 16.0934 0 0
1:15 pm 13:15 Cloudy 14 -9.8 7 -13.8 73 73 NNE 12 19 30.42 1030 10 16.0934 0 0
1:35 pm 13:35 Cloudy 14 -10.1 7 -14 73 73 N 13 20 30.42 1030 10 16.0934 0 0
1:55 pm 13:55 Cloudy 14 -10 7 -14 73 73 NNE 14 22 30.39 1029 10 16.0934 0 0
2:15 pm 14:15 Cloudy 14 -10.1 7 -14.1 73 73 NNE 14 22 30.39 1029 10 16.0934 0 0
2:35 pm 14:35 Cloudy 13 -10.3 6 -14.3 73 73 N 14 22 30.39 1029 10 16.0934 0 0
2:55 pm 14:55 Cloudy 13 -10.3 7 -14.1 74 74 N 13 20 30.39 1029 10 16.0934 0 0
3:15 pm 15:15 Cloudy 13 -10.6 6 -14.5 73 73 N 15 24 30.42 1030 10 16.0934 0 0
3:35 pm 15:35 Cloudy 13 -10.6 6 -14.5 73 73 N 14 22 30.39 1029 10 16.0934 0 0
3:55 pm 15:55 Cloudy with Light Snow 12 -11 5 -14.9 73 73 N 17 28 30.39 1029 10 16.0934 0 0
4:15 pm 16:15 Cloudy with Light Snow 12 -11.3 5 -15.2 73 73 N 17 28 30.42 1030 5 8.0467 0 0
4:35 pm 16:35 Cloudy with Light Snow 11 -11.5 5 -15 76 76 N 16 26 30.42 1030 5 8.0467 0 0
4:55 pm 16:55 Cloudy 10 -12 4 -15.5 75 75 NNE 13 20 30.45 1031 7 11.26538 0 0
5:15 pm 17:15 Cloudy 11 -11.8 4 -15.5 74 74 NNE 10 17 30.42 1030 10 16.0934 0 0
5:35 pm 17:35 Cloudy 11 -11.7 4 -15.4 74 74 NNE 17 28 30.48 1032 10 16.0934 0 0
5:55 pm 17:55 Cloudy with Light Snow 10 -12.3 4 -15.7 76 76 N 16 26 30.48 1032 4 6.43736 0 0
6:15 pm 18:15 Cloudy with Light Snow 9 -12.6 3 -16 76 76 NNE 16 26 30.48 1032 10 16.0934 0 0
6:35 pm 18:35 Cloudy with Light Snow 9 -13 3 -16 78 78 NNE 17 28 30.48 1032 1.75 2.816345 0 0
6:55 pm 18:55 Cloudy with Light Snow 8 -13.5 2 -16.4 79 79 NNE 17 28 30.5 1033 2 3.21868 0 0
7:15 pm 19:15 Cloudy with Light Snow 8 -13.5 3 -16.3 80 80 NNE 15 24 30.5 1033 1.75 2.816345 0 0
7:35 pm 19:35 Cloudy with Light Snow 8 -13.6 2 -16.4 80 80 NNE 13 20 30.5 1033 2.5 4.02335 0 0
7:55 pm 19:55 Cloudy with Light Snow 8 -13.6 2 -16.5 79 79 NNE 13 20 30.5 1033 1.75 2.816345 0 0
8:15 pm 20:15 Cloudy with Light Snow 7 -13.7 2 -16.5 80 80 NE 14 22 30.5 1033 4 6.43736 0 0
8:35 pm 20:35 Cloudy with Light Snow 7 -13.8 2 -16.6 80 80 NNE 8 13 30.56 1035 1.25 2.011675 0 0
8:55 pm 20:55 Cloudy with Light Snow 7 -13.9 2 -16.6 80 80 NNE 10 17 30.56 1035 1.5 2.41401 0 0
9:15 pm 21:15 Cloudy with Snow 7 -14.1 2 -16.7 81 81 N 10 17 30.56 1035 1 1.60934 0 0
9:35 pm 21:35 Cloudy with Snow 7 -14.1 2 -16.6 82 82 NNE 7 11 30.56 1035 0.75 1.207005 0 0
9:55 pm 21:55 Cloudy with Light Snow 7 -14.1 2 -16.6 82 82 N 8 13 30.56 1035 1.5 2.41401 0 0
10:15 pm 22:15 Cloudy with Light Snow 7 -14.1 2 -16.7 81 81 N 9 15 30.56 1035 1.75 2.816345 0 0
10:35 pm 22:35 Cloudy with Light Snow 7 -14.1 2 -16.7 81 81 N 10 17 30.56 1035 1.75 2.816345 0 0
10:55 pm 22:55 Cloudy with Light Snow 7 -14.1 2 -16.6 82 82 N 12 19 30.56 1035 1.5 2.41401 0 0
11:15 pm 23:15 Cloudy with Light Snow 7 -14.1 2 -16.6 82 82 N 13 20 30.56 1035 1.75 2.816345 0.01 0.254
11:35 pm 23:35 Cloudy with Light Snow 7 -14.1 2 -16.6 82 82 N 12 19 30.53 1034 3 4.82802 0.01 0.254
11:55 pm 23:55 Cloudy 7 -13.9 2 -16.9 78 78 N 12 19 30.5 1033 10 16.0934 0.01 0.254

Powered by AerisWeather